Weather in Mysore

India     12°11′25″N   76°52′40″E
temp.,
°C
wind,
m/s
gust,
m/s
humid.,
%
clouds,
%
prec.,
mm/h
press.,
hPa
HPBL,
m
15 may, sat
sat1523:30+24ssw3672100 0.0 1005266
02:30+23ssw2380100 0.0 1003119
05:30+22ssw3587100 0.8 1005274
08:30+24se3479100 1.1 1005540
11:30+27sw4465100 1.9 1006919
14:30+25s3472100 2.1 1004651
17:30+26ssw3364100 2.2 1003998
20:30+24s128198 0.0 100555
16 may, sun
sun1623:30+22s2388100 0.8 1007183
02:30+22ssw249290 3.5 1005261
05:30+22sw3988100 3.6 1005652
08:30+23sw5979100 0.0 1009611
11:30+27wsw81064100 0.1 10081181
14:30+27wsw785999 0.1 10061256
17:30+25wsw687097 0.1 1006667
20:30+23wsw3777100 0.0 1009394
17 may, mon
mon1723:30+23w367684 0.0 1009335
02:30+22sw2580100 0.0 1007188
05:30+22wnw2378100 0.0 1008177
08:30+24ssw2269100 0.0 1010343
11:30+30se2352100 0.0 10081292
14:30+32sse2246100 0.1 10051775
17:30+29sw4756100 0.4 1005376
20:30+26wsw5971100 0.0 1008390
18 may, tue
tue1823:30+24wsw4879100 0.0 1008356
02:30+23wsw2582100 0.0 1007286
05:30+22wnw128494 0.0 100794
08:30+26sw116462 0.0 1009512
11:30+32sse234780 0.0 10071652
14:30+32se2246100 0.2 10041516
17:30+30wsw3551100 0.3 1005451
20:30+27wsw4766100 0.0 1008356
19 may, wed
wed1923:30+23wsw46835 0.7 1009258
02:30+22sw25875 0.0 1007241
05:30+22w138974 0.0 1008107
08:30+26wsw456590 0.0 1010633
11:30+32wsw44436 0.0 10081607
14:30+34sw3337100 0.2 10042500
17:30+30wsw4653100 0.6 1005470
20:30+26wsw697373 2.0 1008351